Lockport-Weather Station Historical Data
Daily Summary for September 1, 2020 Units:  English    Metric   Both
Daily Weekly Monthly Yearly Custom
  High: Low: Average:
Temperature: 36.2 °F 28.5 °F 32.4 °F
Dew Point: 34.1 °F 26.2 °F 30.1 °F
Humidity: 93% 89% 91%
Wind Speed: 4.2mph 0mph 1.8mph
Wind Gust: 10mph - -
Wind- - West
Pressure: 29.69 in 29.47 in -
Precipitation: 0.14 in    
 
 
Tabular Data for September 1, 2020
Time Temperature Dew Point Pressure Wind Wind Speed Wind Gust Humidity Rainfall Rate (Hourly) solar
00:04 36.2 °F 34.1 °F 29.49 in NNW 2.7 mph 8 mph 92% 0.04 in W/m2
00:09 36.2 °F 34.1 °F 29.49 in NW 3.7 mph 9 mph 92% 0.03 in W/m2
00:14 36.2 °F 34.1 °F 29.48 in NW 3 mph 9 mph 92% 0.04 in W/m2
00:19 36.1 °F 34 °F 29.48 in NW 2.3 mph 9 mph 92% 0.04 in W/m2
00:24 36.1 °F 34 °F 29.48 in NNW 2.9 mph 7 mph 92% 0.03 in W/m2
00:29 36.1 °F 34 °F 29.48 in NW 2.9 mph 6 mph 92% 0.03 in W/m2
00:34 36.1 °F 34 °F 29.48 in NW 2.1 mph 6 mph 92% 0.04 in W/m2
00:39 36.1 °F 34 °F 29.48 in NW 3.2 mph 7 mph 92% 0.03 in W/m2
00:44 36 °F 33.9 °F 29.48 in NNW 2.8 mph 7 mph 92% 0.03 in W/m2
00:49 36 °F 33.9 °F 29.48 in NNW 2.5 mph 7 mph 92% 0.03 in W/m2
00:54 36 °F 33.9 °F 29.48 in NW 2.8 mph 6 mph 92% 0.02 in W/m2
00:59 36 °F 33.9 °F 29.48 in NW 2.9 mph 8 mph 92% 0.03 in W/m2
01:04 35.9 °F 33.8 °F 29.48 in NW 2.2 mph 8 mph 92% 0.03 in W/m2
01:09 35.9 °F 33.8 °F 29.48 in NNW 2.9 mph 8 mph 92% 0.03 in W/m2
01:14 35.9 °F 33.8 °F 29.48 in NW 2.4 mph 6 mph 92% 0.03 in W/m2
01:19 35.9 °F 33.8 °F 29.47 in NW 1.3 mph 6 mph 92% 0.03 in W/m2
01:24 35.9 °F 33.8 °F 29.47 in NW 2.8 mph 7 mph 92% 0.03 in W/m2
01:29 35.9 °F 33.8 °F 29.47 in NW 2.7 mph 7 mph 92% 0.03 in W/m2
01:34 35.8 °F 33.7 °F 29.47 in NNW 1.7 mph 7 mph 92% 0.02 in W/m2
01:39 35.8 °F 33.7 °F 29.47 in NW 3 mph 7 mph 92% 0.02 in W/m2
01:44 35.7 °F 33.6 °F 29.48 in NW 2.9 mph 7 mph 92% 0.03 in W/m2
01:49 35.7 °F 33.6 °F 29.48 in NNW 2.8 mph 7 mph 92% 0.03 in W/m2
01:54 35.6 °F 33.5 °F 29.48 in WNW 2.1 mph 8 mph 92% 0.03 in W/m2
01:59 35.6 °F 33.5 °F 29.48 in North 2.1 mph 8 mph 92% 0.02 in W/m2
02:04 35.5 °F 33.4 °F 29.48 in WNW 2.6 mph 8 mph 92% 0.02 in W/m2
02:09 35.5 °F 33.4 °F 29.48 in NW 2.4 mph 5 mph 92% 0.03 in W/m2
02:14 35.4 °F 33.3 °F 29.48 in NW 2 mph 6 mph 92% 0.03 in W/m2
02:19 35.4 °F 33.3 °F 29.48 in NW 2.8 mph 8 mph 92% 0.03 in W/m2
02:24 35.3 °F 33.2 °F 29.48 in WNW 3.3 mph 8 mph 92% 0.02 in W/m2
02:29 35.2 °F 33.1 °F 29.48 in WNW 2.5 mph 8 mph 92% 0.02 in W/m2
02:34 35.1 °F 33 °F 29.48 in NNW 2.8 mph 8 mph 92% 0.02 in W/m2
02:39 35 °F 32.9 °F 29.48 in NW 1.3 mph 8 mph 92% 0.03 in W/m2
02:44 34.9 °F 32.8 °F 29.48 in NW 2.5 mph 8 mph 92% 0.03 in W/m2
02:49 34.8 °F 32.7 °F 29.48 in NW 2.2 mph 6 mph 92% 0.02 in W/m2
02:54 34.7 °F 32.6 °F 29.48 in NW 2.7 mph 6 mph 92% 0.02 in W/m2
02:59 34.6 °F 32.5 °F 29.48 in NNW 2.2 mph 6 mph 92% 0.02 in W/m2
03:04 34.6 °F 32.5 °F 29.48 in NW 2 mph 6 mph 92% 0.03 in W/m2
03:09 34.5 °F 32.3 °F 29.48 in NW 1.9 mph 6 mph 92% 0.02 in W/m2
03:14 34.4 °F 32.3 °F 29.48 in NW 2.5 mph 6 mph 92% 0.02 in W/m2
03:19 34.3 °F 32.3 °F 29.48 in WNW 2.1 mph 6 mph 92% 0.02 in W/m2
03:24 34.3 °F 32.2 °F 29.48 in WNW 1.8 mph 5 mph 92% 0.02 in W/m2
03:29 34.3 °F 32.2 °F 29.48 in NW 2.7 mph 5 mph 92% 0.02 in W/m2
03:34 34.2 °F 32.1 °F 29.48 in West 2.2 mph 6 mph 92% 0.02 in W/m2
03:39 34.1 °F 32 °F 29.47 in WNW 2.2 mph 6 mph 92% 0.02 in W/m2
03:44 34 °F 31.9 °F 29.47 in NW 1.5 mph 6 mph 92% 0.02 in W/m2
03:49 34 °F 31.9 °F 29.47 in NW 1.9 mph 6 mph 92% 0.02 in W/m2
03:54 33.9 °F 31.8 °F 29.47 in WNW 1.9 mph 6 mph 92% 0.02 in W/m2
03:59 33.8 °F 31.7 °F 29.47 in NW 1.6 mph 5 mph 92% 0.02 in W/m2
04:04 33.7 °F 31.6 °F 29.47 in WNW 2.2 mph 5 mph 92% 0.02 in W/m2
04:09 33.6 °F 31.5 °F 29.47 in WNW 2.2 mph 5 mph 92% 0.02 in W/m2
04:14 33.5 °F 31.4 °F 29.47 in WNW 1.9 mph 5 mph 92% 0.02 in W/m2
04:19 33.4 °F 31.3 °F 29.47 in West 1.7 mph 5 mph 92% 0.02 in W/m2
04:24 33.3 °F 31.2 °F 29.48 in WNW 1.8 mph 5 mph 92% 0.02 in W/m2
04:29 33.2 °F 31.1 °F 29.48 in WNW 1.6 mph 5 mph 92% 0.02 in W/m2
04:34 33.1 °F 31 °F 29.47 in WNW 2 mph 4 mph 92% 0.02 in W/m2
04:39 33 °F 30.9 °F 29.48 in WNW 2.4 mph 6 mph 92% 0.01 in W/m2
04:44 32.9 °F 30.8 °F 29.48 in NW 1.9 mph 6 mph 92% 0.01 in W/m2
04:49 32.8 °F 30.7 °F 29.48 in WNW 1.8 mph 6 mph 92% 0.01 in W/m2
04:54 32.7 °F 30.6 °F 29.48 in West 1.5 mph 4 mph 92% 0.01 in W/m2
04:59 32.7 °F 30.6 °F 29.48 in WNW 2.1 mph 4 mph 92% 0.01 in W/m2
05:04 32.6 °F 30.5 °F 29.47 in NW 1.2 mph 4 mph 92% 0.01 in W/m2
05:09 32.6 °F 30.5 °F 29.47 in WNW 1.2 mph 4 mph 92% 0.00 in W/m2
05:14 32.5 °F 30.4 °F 29.48 in WNW 1.1 mph 4 mph 92% 0.00 in W/m2
05:19 32.5 °F 30.4 °F 29.48 in WNW 1.4 mph 3 mph 92% 0.00 in W/m2
05:24 32.5 °F 30.4 °F 29.48 in WNW 1.3 mph 3 mph 92% 0.00 in W/m2
05:29 32.5 °F 30.4 °F 29.48 in WNW 1.2 mph 3 mph 92% 0.00 in W/m2
05:34 32.4 °F 30.3 °F 29.48 in WNW 0.7 mph 3 mph 92% 0.00 in W/m2
05:39 32.4 °F 30.3 °F 29.48 in WNW 1.5 mph 4 mph 92% 0.00 in W/m2
05:44 32.4 °F 30.3 °F 29.48 in WNW 1.5 mph 4 mph 92% 0.00 in W/m2
05:49 32.4 °F 30.3 °F 29.48 in WNW 1.9 mph 4 mph 92% 0.00 in W/m2
05:54 32.4 °F 30.3 °F 29.48 in WNW 1.3 mph 4 mph 92% 0.00 in W/m2
05:59 32.4 °F 30.3 °F 29.48 in WNW 1 mph 4 mph 92% 0.00 in W/m2
06:04 32.3 °F 30.2 °F 29.48 in WNW 1.2 mph 4 mph 92% 0.00 in W/m2
06:09 32.3 °F 30.2 °F 29.48 in NW 1.5 mph 4 mph 92% 0.00 in W/m2
06:14 32.3 °F 30.2 °F 29.48 in NW 1.5 mph 3 mph 92% 0.00 in W/m2
06:19 32.3 °F 30.2 °F 29.48 in WNW 1.8 mph 4 mph 92% 0.00 in W/m2
06:24 32.3 °F 30.2 °F 29.48 in WNW 1.5 mph 4 mph 92% 0.00 in W/m2
06:29 32.3 °F 30.2 °F 29.48 in WNW 1 mph 4 mph 92% 0.00 in W/m2
06:34 32.3 °F 30.2 °F 29.48 in West 1.4 mph 4 mph 92% 0.00 in W/m2
06:39 32.3 °F 30.2 °F 29.48 in West 2.1 mph 4 mph 92% 0.00 in W/m2
06:44 32.2 °F 30.1 °F 29.48 in WNW 1.5 mph 4 mph 92% 0.00 in W/m2
06:49 32.2 °F 30.1 °F 29.48 in NW 0.5 mph 4 mph 92% 0.00 in W/m2
06:54 32.2 °F 30.1 °F 29.48 in NW 0.6 mph 3 mph 92% 0.00 in W/m2
06:59 32.2 °F 30.1 °F 29.48 in NW 0.7 mph 2 mph 92% 0.00 in W/m2
07:04 32.2 °F 30.1 °F 29.48 in NW 1.2 mph 3 mph 92% 0.00 in W/m2
07:09 32.2 °F 30.1 °F 29.48 in WNW 1.3 mph 3 mph 92% 0.00 in W/m2
07:14 32.2 °F 30.1 °F 29.48 in WNW 0.8 mph 3 mph 92% 0.00 in W/m2
07:19 32.2 °F 30.1 °F 29.48 in WNW 0.8 mph 3 mph 92% 0.00 in W/m2
07:24 32.2 °F 30.1 °F 29.48 in WNW 1.1 mph 3 mph 92% 0.00 in W/m2
07:29 32.2 °F 30.1 °F 29.48 in WNW 1 mph 3 mph 92% 0.00 in W/m2
07:34 32.2 °F 30.1 °F 29.48 in WNW 1.1 mph 4 mph 92% 0.00 in W/m2
07:39 32.2 °F 30.1 °F 29.49 in WNW 1.3 mph 4 mph 92% 0.00 in W/m2
07:44 32.2 °F 30.1 °F 29.49 in WNW 0.6 mph 4 mph 92% 0.00 in W/m2
07:49 32.2 °F 30.1 °F 29.49 in WNW 0.5 mph 3 mph 92% 0.00 in W/m2
07:54 32.1 °F 30 °F 29.49 in WNW 0.8 mph 2 mph 92% 0.00 in W/m2
07:59 32.1 °F 30 °F 29.49 in WNW 0.3 mph 2 mph 92% 0.00 in W/m2
08:04 32.2 °F 30.1 °F 29.49 in WNW 0.2 mph 2 mph 92% 0.00 in W/m2
08:09 32.1 °F 30 °F 29.49 in WNW 0.3 mph 2 mph 92% 0.00 in W/m2
08:14 32.2 °F 30.1 °F 29.49 in WNW 0.2 mph 2 mph 92.1% 0.00 in W/m2
08:19 32.2 °F 30.1 °F 29.50 in WNW 0.1 mph 2 mph 92.1% 0.00 in W/m2
08:24 32.2 °F 30.1 °F 29.49 in WNW 0.1 mph 1 mph 92% 0.00 in W/m2
08:29 32.2 °F 30.3 °F 29.50 in Calm   1 mph 92.5% 0.00 in W/m2
08:34 32.2 °F 30.2 °F 29.50 in Calm   1 mph 92.3% 0.00 in W/m2
08:39 32.2 °F 30.2 °F 29.50 in Calm   1 mph 92.4% 0.00 in W/m2
08:44 32.2 °F 30.2 °F 29.50 in Calm   1 mph 92.4% 0.00 in W/m2
08:49 32.3 °F 30.5 °F 29.50 in Calm     93% 0.00 in W/m2
08:54 32.3 °F 30.3 °F 29.50 in Calm     92.5% 0.00 in W/m2
08:59 32.3 °F 30.5 °F 29.50 in Calm     92.8% 0.00 in W/m2
09:04 32.3 °F 30.5 °F 29.50 in Calm     93% 0.00 in W/m2
09:09 32.4 °F 30.5 °F 29.50 in Calm     92.7% 0.00 in W/m2
09:14 32.4 °F 30.4 °F 29.50 in Calm     92.2% 0.00 in W/m2
09:19 32.4 °F 30.3 °F 29.50 in Calm     92% 0.00 in W/m2
09:24 32.5 °F 30.4 °F 29.50 in Calm   1 mph 92% 0.00 in W/m2
09:29 32.5 °F 30.4 °F 29.50 in Calm   1 mph 92% 0.00 in W/m2
09:34 32.5 °F 30.4 °F 29.50 in Calm   1 mph 92% 0.00 in W/m2
09:39 32.6 °F 30.5 °F 29.50 in Calm     92% 0.00 in W/m2
09:44 32.6 °F 30.5 °F 29.50 in Calm     92% 0.00 in W/m2
09:49 32.7 °F 30.6 °F 29.50 in Calm     92% 0.00 in W/m2
09:54 32.7 °F 30.9 °F 29.50 in WSW 0.2 mph 2 mph 92.9% 0.00 in W/m2
09:59 32.7 °F 30.8 °F 29.50 in Calm   2 mph 92.6% 0.00 in W/m2
10:04 32.7 °F 30.9 °F 29.50 in WSW 0.3 mph 2 mph 92.8% 0.00 in W/m2
10:09 32.8 °F 31 °F 29.51 in West 0.1 mph 1 mph 93% 0.00 in W/m2
10:14 32.8 °F 31 °F 29.51 in West 0.1 mph 1 mph 93% 0.00 in W/m2
10:19 32.8 °F 31 °F 29.51 in West 0.1 mph 1 mph 93% 0.00 in W/m2
10:24 32.8 °F 31 °F 29.51 in WSW 0.1 mph 2 mph 93% 0.00 in W/m2
10:29 32.8 °F 31 °F 29.51 in WSW 0.1 mph 2 mph 93% 0.00 in W/m2
10:34 32.8 °F 31 °F 29.51 in WSW 0.4 mph 2 mph 93% 0.00 in W/m2
10:39 32.9 °F 31.1 °F 29.51 in WSW 0.3 mph 3 mph 93% 0.00 in W/m2
10:44 32.9 °F 31.1 °F 29.51 in SW 0.6 mph 3 mph 93% 0.00 in W/m2
10:49 32.9 °F 31.1 °F 29.51 in SW 0.7 mph 3 mph 93% 0.00 in W/m2
10:54 32.9 °F 31 °F 29.51 in SW 0.4 mph 3 mph 92.8% 0.00 in W/m2
10:59 32.8 °F 30.8 °F 29.51 in SW 0.3 mph 3 mph 92.3% 0.00 in W/m2
11:04 32.8 °F 31 °F 29.51 in Calm   3 mph 92.8% 0.00 in W/m2
11:09 32.8 °F 31 °F 29.51 in Calm   2 mph 93% 0.00 in W/m2
11:14 32.8 °F 31 °F 29.51 in SW 0.7 mph 3 mph 93% 0.00 in W/m2
11:19 32.8 °F 30.8 °F 29.50 in SW 0.8 mph 3 mph 92.3% 0.00 in W/m2
11:24 32.7 °F 30.6 °F 29.50 in WSW 0.7 mph 3 mph 92% 0.00 in W/m2
11:29 32.7 °F 30.6 °F 29.50 in SW 1 mph 3 mph 92% 0.00 in W/m2
11:34 32.7 °F 30.6 °F 29.50 in SW 0.7 mph 3 mph 92% 0.00 in W/m2
11:39 32.7 °F 30.6 °F 29.50 in SW 0.6 mph 3 mph 92% 0.00 in W/m2
11:44 32.7 °F 30.6 °F 29.50 in SW 0.8 mph 3 mph 92% 0.00 in W/m2
11:49 32.7 °F 30.8 °F 29.50 in SSW 0.3 mph 3 mph 92.3% 0.00 in W/m2
11:54 32.8 °F 30.7 °F 29.50 in SW 1.6 mph 4 mph 92% 0.01 in W/m2
11:59 32.9 °F 30.8 °F 29.50 in SW 1.8 mph 4 mph 92% 0.01 in W/m2
12:04 33 °F 30.9 °F 29.50 in SW 1.4 mph 4 mph 92% 0.01 in W/m2
12:09 33.1 °F 31 °F 29.50 in SW 2.1 mph 6 mph 92% 0.01 in W/m2
12:14 33.1 °F 31 °F 29.50 in SW 2 mph 6 mph 92% 0.01 in W/m2
12:19 33.1 °F 31 °F 29.50 in WSW 1.7 mph 6 mph 92% 0.01 in W/m2
12:24 33.1 °F 31 °F 29.50 in SW 1.5 mph 4 mph 92% 0.01 in W/m2
12:29 33.2 °F 31.1 °F 29.50 in SW 1.4 mph 4 mph 92% 0.01 in W/m2
12:34 33.2 °F 31.1 °F 29.50 in SW 2.1 mph 5 mph 92% 0.01 in W/m2
12:39 33.3 °F 31.2 °F 29.50 in SW 1.7 mph 5 mph 92% 0.01 in W/m2
12:44 33.3 °F 31.2 °F 29.50 in SW 1.7 mph 5 mph 92% 0.01 in W/m2
12:49 33.4 °F 31.3 °F 29.50 in SW 1.9 mph 5 mph 92% 0.01 in W/m2
12:54 33.4 °F 31.3 °F 29.50 in SW 1.7 mph 5 mph 92% 0.01 in W/m2
12:59 33.5 °F 31.4 °F 29.50 in SW 1.2 mph 5 mph 92% 0.00 in W/m2
13:04 33.5 °F 31.4 °F 29.50 in SW 2.2 mph 5 mph 92% 0.00 in W/m2
13:09 33.5 °F 31.4 °F 29.50 in SW 2.5 mph 5 mph 92% 0.00 in W/m2
13:14 33.5 °F 31.4 °F 29.50 in SW 2.1 mph 5 mph 91.8% 0.00 in W/m2
13:19 33.5 °F 31.4 °F 29.50 in SW 2.1 mph 5 mph 92% 0.00 in W/m2
13:24 33.5 °F 31.2 °F 29.50 in WSW 1.6 mph 5 mph 91.1% 0.00 in W/m2
13:29 33.5 °F 31.2 °F 29.50 in SW 1.8 mph 5 mph 91% 0.00 in W/m2
13:34 33.4 °F 31.1 °F 29.50 in WSW 1.4 mph 5 mph 91% 0.00 in W/m2
13:39 33.4 °F 31.1 °F 29.50 in SW 1.8 mph 5 mph 91% 0.00 in W/m2
13:44 33.3 °F 31.1 °F 29.50 in SW 2.5 mph 7 mph 91% 0.01 in W/m2
13:49 33.3 °F 31 °F 29.50 in SW 2.7 mph 7 mph 91% 0.01 in W/m2
13:54 33.2 °F 30.9 °F 29.50 in SW 2.4 mph 7 mph 91% 0.01 in W/m2
13:59 33.1 °F 30.6 °F 29.50 in WSW 1.9 mph 7 mph 90.6% 0.01 in W/m2
14:04 33 °F 30.6 °F 29.50 in SW 1.8 mph 5 mph 90.8% 0.01 in W/m2
14:09 32.9 °F 30.6 °F 29.50 in SW 2.6 mph 7 mph 90.9% 0.01 in W/m2
14:14 32.8 °F 30.2 °F 29.51 in SW 2.6 mph 7 mph 90% 0.01 in W/m2
14:19 32.8 °F 30.2 °F 29.51 in SW 3 mph 7 mph 90% 0.01 in W/m2
14:24 32.6 °F 30 °F 29.51 in WSW 4.2 mph 10 mph 90% 0.01 in W/m2
14:29 32.5 °F 29.9 °F 29.51 in SW 2.3 mph 10 mph 90% 0.01 in W/m2
14:34 32.4 °F 29.8 °F 29.51 in SW 2.1 mph 10 mph 90% 0.01 in W/m2
14:39 32.3 °F 29.7 °F 29.51 in SW 2.7 mph 9 mph 90% 0.01 in W/m2
14:44 32.3 °F 29.7 °F 29.51 in SW 3 mph 9 mph 90% 0.01 in W/m2
14:49 32.2 °F 29.6 °F 29.51 in WSW 2.9 mph 9 mph 90% 0.00 in W/m2
14:54 32.2 °F 29.6 °F 29.51 in SW 3 mph 7 mph 90% 0.00 in W/m2
14:59 32.2 °F 29.6 °F 29.52 in SW 2.8 mph 7 mph 90% 0.00 in W/m2
15:04 32.1 °F 29.5 °F 29.52 in SW 2.4 mph 7 mph 90% 0.00 in W/m2
15:09 32.2 °F 29.6 °F 29.52 in WSW 2.7 mph 7 mph 90% 0.00 in W/m2
15:14 32.2 °F 29.6 °F 29.52 in SW 2.7 mph 7 mph 90% 0.00 in W/m2
15:19 32.1 °F 29.4 °F 29.52 in SW 3.1 mph 8 mph 89.5% 0.00 in W/m2
15:24 32.1 °F 29.2 °F 29.53 in SW 2 mph 8 mph 89% 0.00 in W/m2
15:29 32.1 °F 29.2 °F 29.53 in WSW 2.3 mph 8 mph 89% 0.00 in W/m2
15:34 32.1 °F 29.2 °F 29.53 in SW 3.1 mph 8 mph 89% 0.00 in W/m2
15:39 32 °F 29.1 °F 29.53 in WSW 1.9 mph 8 mph 89% 0.01 in W/m2
15:44 32 °F 29.1 °F 29.53 in SW 3.2 mph 8 mph 89% 0.01 in W/m2
15:49 31.9 °F 29 °F 29.53 in SW 2.2 mph 8 mph 89% 0.01 in W/m2
15:54 31.9 °F 29 °F 29.54 in WSW 2.4 mph 8 mph 89% 0.01 in W/m2
15:59 31.8 °F 28.9 °F 29.54 in SW 2.4 mph 6 mph 89% 0.01 in W/m2
16:04 31.7 °F 28.8 °F 29.54 in SW 1.8 mph 6 mph 89% 0.01 in W/m2
16:09 31.7 °F 28.8 °F 29.54 in SW 2 mph 6 mph 89% 0.01 in W/m2
16:14 31.7 °F 28.8 °F 29.54 in WSW 2 mph 5 mph 89% 0.01 in W/m2
16:19 31.6 °F 28.7 °F 29.55 in SW 2.2 mph 5 mph 89% 0.01 in W/m2
16:24 31.5 °F 28.6 °F 29.55 in SW 2.5 mph 7 mph 89% 0.01 in W/m2
16:29 31.4 °F 28.5 °F 29.55 in SW 2.8 mph 7 mph 89% 0.01 in W/m2
16:34 31.4 °F 28.5 °F 29.55 in SW 2.1 mph 7 mph 89% 0.01 in W/m2
16:39 31.3 °F 28.4 °F 29.55 in WSW 2.5 mph 6 mph 89% 0.00 in W/m2
16:44 31.2 °F 28.3 °F 29.55 in SW 1.8 mph 6 mph 89% 0.00 in W/m2
16:49 31.1 °F 28.3 °F 29.55 in SW 1.9 mph 6 mph 89.2% 0.00 in W/m2
16:54 31.1 °F 28.5 °F 29.56 in SW 2.2 mph 5 mph 90% 0.00 in W/m2
16:59 31 °F 28.4 °F 29.56 in SW 2.4 mph 7 mph 89.8% 0.00 in W/m2
17:04 31 °F 28.2 °F 29.56 in SW 1.9 mph 7 mph 89.3% 0.00 in W/m2
17:09 31 °F 28.4 °F 29.56 in SW 2.3 mph 7 mph 90% 0.01 in W/m2
17:14 30.9 °F 28.3 °F 29.56 in SW 2.3 mph 6 mph 90% 0.01 in W/m2
17:19 30.9 °F 28.3 °F 29.56 in SW 3.1 mph 8 mph 90% 0.01 in W/m2
17:24 30.9 °F 28.3 °F 29.57 in SW 2.8 mph 8 mph 90% 0.01 in W/m2
17:29 30.8 °F 28.2 °F 29.57 in SW 2.8 mph 8 mph 90% 0.01 in W/m2
17:34 30.8 °F 28.2 °F 29.57 in WSW 2.1 mph 7 mph 90% 0.01 in W/m2
17:39 30.8 °F 28.2 °F 29.57 in WSW 2 mph 7 mph 90% 0.01 in W/m2
17:44 30.7 °F 28.1 °F 29.57 in SW 1.9 mph 7 mph 90% 0.01 in W/m2
17:49 30.7 °F 28.1 °F 29.57 in SW 1.8 mph 5 mph 90% 0.01 in W/m2
17:54 30.7 °F 28.1 °F 29.57 in SW 1.8 mph 5 mph 90% 0.01 in W/m2
17:59 30.7 °F 28.1 °F 29.58 in WSW 2.1 mph 5 mph 90% 0.01 in W/m2
18:04 30.7 °F 28.1 °F 29.58 in SW 1.9 mph 5 mph 90% 0.01 in W/m2
18:09 30.7 °F 28.1 °F 29.58 in SW 3.2 mph 8 mph 90% 0.00 in W/m2
18:14 30.7 °F 28.1 °F 29.58 in SW 1.8 mph 8 mph 90% 0.00 in W/m2
18:19 30.7 °F 28.1 °F 29.58 in SW 2.7 mph 8 mph 90% 0.00 in W/m2
18:24 30.7 °F 28.1 °F 29.58 in SW 2.3 mph 6 mph 90% 0.00 in W/m2
18:29 30.7 °F 28.1 °F 29.58 in SW 2.7 mph 6 mph 90% 0.00 in W/m2
18:34 30.6 °F 28 °F 29.58 in WSW 3 mph 7 mph 90% 0.00 in W/m2
18:39 30.6 °F 28 °F 29.59 in SW 2.3 mph 7 mph 90% 0.00 in W/m2
18:44 30.6 °F 28 °F 29.59 in SW 2.1 mph 7 mph 90% 0.00 in W/m2
18:49 30.6 °F 28.3 °F 29.59 in SW 1.7 mph 7 mph 90.8% 0.00 in W/m2
18:54 30.7 °F 28.4 °F 29.60 in SW 2.1 mph 7 mph 91% 0.00 in W/m2
18:59 30.7 °F 28.3 °F 29.60 in SW 1.9 mph 4 mph 90.8% 0.00 in W/m2
19:04 30.7 °F 28.3 °F 29.60 in SW 1.9 mph 5 mph 90.8% 0.00 in W/m2
19:09 30.7 °F 28.4 °F 29.60 in SW 2.1 mph 6 mph 91% 0.00 in W/m2
19:14 30.7 °F 28.4 °F 29.60 in SW 2.6 mph 6 mph 91% 0.00 in W/m2
19:19 30.7 °F 28.4 °F 29.60 in SW 2.3 mph 6 mph 91% 0.00 in W/m2
19:24 30.7 °F 28.4 °F 29.61 in SW 2.3 mph 8 mph 91% 0.00 in W/m2
19:29 30.8 °F 28.5 °F 29.61 in SW 1.7 mph 8 mph 91% 0.00 in W/m2
19:34 30.8 °F 28.5 °F 29.61 in SW 1.6 mph 8 mph 91% 0.00 in W/m2
19:39 30.8 °F 28.5 °F 29.61 in SW 2.4 mph 6 mph 91% 0.00 in W/m2
19:44 30.8 °F 28.5 °F 29.61 in WSW 2.2 mph 6 mph 91% 0.00 in W/m2
19:49 30.8 °F 28.5 °F 29.61 in WSW 2.4 mph 6 mph 91% 0.00 in W/m2
19:54 30.8 °F 28.5 °F 29.62 in SW 2.6 mph 7 mph 91% 0.00 in W/m2
19:59 30.8 °F 28.5 °F 29.62 in SW 2 mph 7 mph 91% 0.00 in W/m2
20:04 30.8 °F 28.5 °F 29.62 in SW 2.8 mph 7 mph 91% 0.00 in W/m2
20:09 30.8 °F 28.5 °F 29.62 in SW 3 mph 7 mph 91% 0.00 in W/m2
20:14 30.8 °F 28.5 °F 29.62 in WSW 2.2 mph 7 mph 91% 0.00 in W/m2
20:19 30.8 °F 28.5 °F 29.62 in WSW 3 mph 9 mph 91% 0.00 in W/m2
20:24 30.8 °F 28.5 °F 29.63 in SW 2.5 mph 9 mph 91% 0.00 in W/m2
20:29 30.9 °F 28.6 °F 29.63 in WSW 2 mph 9 mph 91% 0.00 in W/m2
20:34 30.9 °F 28.6 °F 29.63 in West 2.1 mph 8 mph 91% 0.00 in W/m2
20:39 30.9 °F 28.6 °F 29.63 in SW 2.4 mph 6 mph 91% 0.00 in W/m2
20:44 31 °F 28.7 °F 29.63 in SW 3.1 mph 9 mph 91% 0.00 in W/m2
20:49 31 °F 28.7 °F 29.63 in WSW 2.6 mph 9 mph 91% 0.00 in W/m2
20:54 31 °F 28.7 °F 29.63 in WSW 2.5 mph 9 mph 91% 0.00 in W/m2
20:59 31.1 °F 28.8 °F 29.63 in WSW 2.5 mph 9 mph 91% 0.00 in W/m2
21:04 31.1 °F 28.8 °F 29.63 in WSW 2 mph 9 mph 91% 0.00 in W/m2
21:09 31.1 °F 28.8 °F 29.63 in SW 2.9 mph 9 mph 91% 0.00 in W/m2
21:14 31 °F 28.7 °F 29.63 in SW 1.7 mph 6 mph 91% 0.00 in W/m2
21:19 31 °F 28.7 °F 29.63 in WSW 2.1 mph 7 mph 91% 0.00 in W/m2
21:24 30.9 °F 28.6 °F 29.64 in WSW 1.7 mph 7 mph 91% 0.00 in W/m2
21:29 30.9 °F 28.6 °F 29.64 in West 2 mph 7 mph 91% 0.00 in W/m2
21:34 30.9 °F 28.6 °F 29.64 in West 1.7 mph 5 mph 91% 0.00 in W/m2
21:39 30.8 °F 28.5 °F 29.64 in WSW 1.2 mph 5 mph 91% 0.00 in W/m2
21:44 30.8 °F 28.5 °F 29.65 in WSW 2.3 mph 7 mph 91% 0.00 in W/m2
21:49 30.7 °F 28.4 °F 29.65 in West 1.7 mph 7 mph 91% 0.00 in W/m2
21:54 30.7 °F 28.4 °F 29.65 in West 1.6 mph 7 mph 91% 0.00 in W/m2
21:59 30.7 °F 28.4 °F 29.65 in WSW 1.4 mph 6 mph 91% 0.00 in W/m2
22:04 30.6 °F 28.3 °F 29.65 in WSW 1.9 mph 6 mph 91% 0.00 in W/m2
22:09 30.6 °F 28.3 °F 29.65 in West 2.3 mph 6 mph 91% 0.00 in W/m2
22:14 30.5 °F 28.2 °F 29.66 in WSW 2.4 mph 9 mph 91% 0.00 in W/m2
22:19 30.5 °F 28.2 °F 29.66 in SW 2.3 mph 9 mph 91% 0.00 in W/m2
22:24 30.4 °F 28.1 °F 29.66 in WNW 2.4 mph 9 mph 91% 0.00 in W/m2
22:29 30.3 °F 28 °F 29.66 in West 1.8 mph 5 mph 91% 0.00 in W/m2
22:34 30.1 °F 27.8 °F 29.66 in West 2.3 mph 8 mph 91% 0.00 in W/m2
22:39 30.1 °F 27.8 °F 29.65 in WSW 2.3 mph 8 mph 91% 0.00 in W/m2
22:44 30 °F 27.7 °F 29.65 in WSW 3.4 mph 8 mph 91% 0.00 in W/m2
22:49 29.9 °F 27.6 °F 29.66 in West 2.7 mph 5 mph 91% 0.00 in W/m2
22:54 29.8 °F 27.5 °F 29.66 in WSW 2.1 mph 6 mph 91% 0.00 in W/m2
22:59 29.7 °F 27.4 °F 29.67 in West 3.5 mph 7 mph 91% 0.00 in W/m2
23:04 29.6 °F 27.3 °F 29.67 in WSW 2.4 mph 7 mph 91% 0.00 in W/m2
23:09 29.5 °F 27.2 °F 29.67 in West 2.3 mph 7 mph 91% 0.00 in W/m2
23:14 29.3 °F 27 °F 29.67 in West 2.3 mph 6 mph 91% 0.00 in W/m2
23:19 29.1 °F 26.8 °F 29.67 in West 2.9 mph 8 mph 91% 0.00 in W/m2
23:24 29 °F 26.7 °F 29.67 in WSW 2.3 mph 9 mph 91% 0.00 in W/m2
23:29 28.9 °F 26.6 °F 29.67 in West 2.7 mph 9 mph 91% 0.00 in W/m2
23:34 28.8 °F 26.5 °F 29.68 in WSW 2.3 mph 9 mph 91% 0.00 in W/m2
23:39 28.7 °F 26.4 °F 29.68 in West 1.5 mph 9 mph 91% 0.00 in W/m2
23:44 28.7 °F 26.4 °F 29.68 in West 2.2 mph 6 mph 91% 0.00 in W/m2
23:49 28.7 °F 26.4 °F 29.69 in West 2.9 mph 8 mph 91% 0.00 in W/m2
23:54 28.6 °F 26.3 °F 29.69 in West 2.5 mph 8 mph 91% 0.00 in W/m2
23:59 28.5 °F 26.2 °F 29.69 in WSW 2.8 mph 8 mph 91% 0.00 in W/m2
Lockport, New York, USA
Compliments of Weather Underground - 2.75 mb